Date String (YYYY-MM-DD hh:mm:ss) UTC,Instrument flags,absolute air pressure of the measurement (hPa),sample flow rate (lpm),inlet stack bypass flow (lpm),air temperature of the measurement (°C),ambient temperature measured by the external sensor (°C),aerosol sample conditioner tube jacket temperature (°C),OPC LED temperature (°C),internal box temperature (°C),relative humidity of the measurement (%),span deviation,mass concentration of particles derived from Lorenz-Mie calculation of OPC scattering (μg/m³),mass concentration of particles derived from Lorenz-Mie calculation of OPC scattering (μg/m³),mass concentration of particles derived from Lorenz-Mie calculation of OPC scattering (μg/m³)
DateTimeUTC,F1_M11,P_M11,Q1_M11,Q2_M11,T1_M11,T2_M11,T3_M11,T4_M11,T5_M11,U1_M11,ZSPAN_M11,X0_M11,X2_M11,X1_M11
2024-01-28 23:00:00,SystemResetWarning,0836.5,5.00,000.00,025.8,023.6,000.0,034.1,027.1,12.0,0000.0,0008.85,0004.08,0003.80
2024-01-28 23:01:00,SystemResetWarning,0836.5,5.00,000.00,025.9,023.9,000.0,034.1,027.2,12.0,0000.0,0009.13,0004.09,0003.80
2024-01-28 23:02:00,SystemResetWarning,0836.5,4.99,000.00,025.9,024.2,000.0,034.0,027.3,12.0,0000.0,0009.28,0004.10,0003.81
2024-01-28 23:03:00,SystemResetWarning,0836.5,5.00,000.00,025.9,024.5,000.0,034.1,027.3,11.9,0000.0,0009.14,0004.11,0003.80
2024-01-28 23:04:00,SystemResetWarning,0836.5,5.00,000.00,026.0,024.7,000.0,034.1,027.4,11.9,0000.0,0009.06,0004.07,0003.79
2024-01-28 23:05:00,SystemResetWarning,0836.5,5.00,000.00,026.0,024.8,000.0,034.1,027.5,11.9,0000.0,0009.25,0004.03,0003.77
2024-01-28 23:06:00,SystemResetWarning,0836.5,5.00,000.00,026.0,025.0,000.0,034.1,027.6,11.9,0000.0,0009.60,0004.00,0003.75
2024-01-28 23:07:00,SystemResetWarning,0836.6,5.00,000.00,026.1,025.1,000.0,034.1,027.6,11.9,0000.0,0009.06,0004.02,0003.75
2024-01-28 23:08:00,SystemResetWarning,0836.6,5.00,000.00,026.1,025.2,000.0,034.1,027.7,11.8,0000.0,0008.88,0004.03,0003.77
2024-01-28 23:09:00,SystemResetWarning,0836.6,4.98,000.00,026.1,023.9,000.0,034.2,027.7,11.8,0000.0,0008.37,0004.10,0003.81
2024-01-28 23:10:00,SystemResetWarning,0836.5,5.01,000.00,026.0,021.9,000.0,034.1,027.3,11.9,0000.0,0008.48,0004.16,0003.87
2024-01-28 23:11:00,SystemResetWarning,0836.6,5.01,000.00,025.9,021.5,000.0,034.1,027.1,12.0,0000.0,0008.63,0004.24,0003.91
2024-01-28 23:12:00,SystemResetWarning,0836.5,5.01,000.00,025.8,021.9,000.0,034.0,026.6,12.2,0000.0,0009.21,0004.31,0003.97
2024-01-28 23:13:00,SystemResetWarning,0836.5,5.00,000.00,025.6,022.3,000.0,034.0,026.6,12.1,0000.0,0009.36,0004.34,0004.02
2024-01-28 23:14:00,SystemResetWarning,0836.6,5.00,000.00,025.6,022.8,000.0,033.9,026.7,12.1,0000.0,0009.96,0004.40,0004.06
2024-01-28 23:15:00,SystemResetWarning,0836.6,5.00,000.00,025.6,023.2,000.0,033.9,026.8,12.1,0000.0,0010.42,0004.45,0004.11
2024-01-28 23:16:00,SystemResetWarning,0836.7,5.00,000.00,025.6,023.5,000.0,033.9,026.9,12.2,0000.0,0010.70,0004.53,0004.17
2024-01-28 23:17:00,SystemResetWarning,0836.6,5.00,000.00,025.6,023.8,000.0,033.8,027.0,12.2,0000.0,0011.02,0004.61,0004.23
2024-01-28 23:18:00,SystemResetWarning,0836.7,5.00,000.00,025.7,024.1,000.0,033.8,027.1,12.1,0000.0,0011.08,0004.65,0004.27
2024-01-28 23:19:00,SystemResetWarning,0836.6,5.00,000.00,025.7,024.3,000.0,033.8,027.2,12.1,0000.0,0011.20,0004.69,0004.28
2024-01-28 23:20:00,SystemResetWarning,0836.6,5.00,000.00,025.7,024.5,000.0,033.8,027.3,12.0,0000.0,0011.28,0004.70,0004.29
2024-01-28 23:21:00,SystemResetWarning,0836.7,4.99,000.00,025.8,024.7,000.0,033.9,027.3,12.0,0000.0,0011.98,0004.69,0004.29
2024-01-28 23:22:00,SystemResetWarning,0836.6,5.00,000.00,025.8,024.8,000.0,033.9,027.4,12.0,0000.0,0012.09,0004.70,0004.30
2024-01-28 23:23:00,SystemResetWarning,0836.7,5.00,000.00,025.9,024.9,000.0,033.9,027.5,11.9,0000.0,0011.76,0004.70,0004.32
2024-01-28 23:24:00,SystemResetWarning,0836.6,5.01,000.00,025.9,025.0,000.0,033.9,027.5,11.9,0000.0,0011.11,0004.72,0004.33
2024-01-28 23:25:00,SystemResetWarning,0836.6,5.00,000.00,026.0,025.2,000.0,034.0,027.6,11.9,0000.0,0011.32,0004.72,0004.34
2024-01-28 23:26:00,SystemResetWarning,0836.6,4.99,000.00,026.0,025.2,000.0,034.0,027.7,12.0,0000.0,0010.89,0004.71,0004.34
2024-01-28 23:27:00,SystemResetWarning,0836.6,4.99,000.00,026.1,024.1,000.0,034.0,027.6,12.0,0000.0,0010.99,0004.74,0004.36
2024-01-28 23:28:00,SystemResetWarning,0836.6,5.01,000.00,026.0,022.7,000.0,034.0,027.4,12.0,0000.0,0010.29,0004.75,0004.38
2024-01-28 23:29:00,SystemResetWarning,0836.6,5.01,000.00,025.9,022.5,000.0,034.0,027.2,12.0,0000.0,0010.46,0004.78,0004.39
2024-01-28 23:30:00,SystemResetWarning,0836.7,5.01,000.00,025.8,022.8,000.0,034.0,026.8,12.0,0000.0,0011.07,0004.79,0004.41
2024-01-28 23:31:00,SystemResetWarning,0836.6,4.99,000.00,025.7,023.1,000.0,033.9,026.8,12.1,0000.0,0011.06,0004.80,0004.43
2024-01-28 23:32:00,SystemResetWarning,0836.6,5.00,000.00,025.7,023.5,000.0,033.9,026.9,12.1,0000.0,0010.62,0004.81,0004.44
2024-01-28 23:33:00,SystemResetWarning,0836.6,5.01,000.00,025.7,023.8,000.0,033.9,027.0,12.1,0000.0,0010.62,0004.83,0004.45
2024-01-28 23:34:00,SystemResetWarning,0836.6,5.01,000.00,025.7,024.1,000.0,033.9,027.1,12.1,0000.0,0011.59,0004.83,0004.47
2024-01-28 23:35:00,SystemResetWarning,0836.6,5.00,000.00,025.8,024.3,000.0,033.9,027.2,12.0,0000.0,0012.43,0004.84,0004.49
2024-01-28 23:36:00,SystemResetWarning,0836.6,5.00,000.00,025.8,024.5,000.0,033.9,027.3,12.1,0000.0,0011.87,0004.85,0004.50
2024-01-28 23:37:00,SystemResetWarning,0836.6,5.00,000.00,025.8,024.7,000.0,033.9,027.4,12.0,0000.0,0011.87,0004.86,0004.52
2024-01-28 23:38:00,SystemResetWarning,0836.6,4.99,000.00,025.9,024.8,000.0,033.9,027.4,12.0,0000.0,0012.41,0004.84,0004.52
2024-01-28 23:39:00,SystemResetWarning,0836.6,5.00,000.00,025.9,025.0,000.0,034.0,027.5,12.0,0000.0,0012.33,0004.84,0004.53
2024-01-28 23:40:00,SystemResetWarning,0836.6,5.00,000.00,026.0,025.1,000.0,034.0,027.6,12.0,0000.0,0012.21,0004.85,0004.55
2024-01-28 23:41:00,SystemResetWarning,0836.6,5.00,000.00,026.0,025.2,000.0,034.0,027.6,12.0,0000.0,0011.36,0004.83,0004.56
2024-01-28 23:42:00,SystemResetWarning,0836.6,5.00,000.00,026.1,025.3,000.0,034.0,027.7,11.9,0000.0,0011.35,0004.84,0004.58
2024-01-28 23:43:00,SystemResetWarning,0836.6,4.98,000.00,026.1,024.2,000.0,034.1,027.7,11.9,0000.0,0011.46,0004.90,0004.59
2024-01-28 23:44:00,SystemResetWarning,0836.6,5.02,000.00,026.0,022.6,000.0,034.0,027.4,11.8,0000.0,0011.16,0004.93,0004.61
2024-01-28 23:45:00,SystemResetWarning,0836.6,5.01,000.00,025.9,022.5,000.0,034.0,027.2,11.8,0000.0,0010.22,0004.94,0004.62
2024-01-28 23:46:00,SystemResetWarning,0836.6,4.99,000.00,025.8,022.8,000.0,034.0,026.8,11.9,0000.0,0009.49,0004.97,0004.62
2024-01-28 23:47:00,SystemResetWarning,0836.6,4.99,000.00,025.8,023.1,000.0,033.9,026.9,12.0,0000.0,0009.44,0004.97,0004.63
2024-01-28 23:48:00,SystemResetWarning,0836.6,5.01,000.00,025.7,023.5,000.0,033.9,027.0,12.0,0000.0,0009.76,0004.96,0004.63
2024-01-28 23:49:00,SystemResetWarning,0836.6,5.02,000.00,025.7,023.8,000.0,033.9,027.1,12.0,0000.0,0008.97,0004.96,0004.63
2024-01-28 23:50:00,SystemResetWarning,0836.6,4.99,000.00,025.8,024.1,000.0,033.9,027.2,12.0,0000.0,0008.91,0004.98,0004.60
2024-01-28 23:51:00,SystemResetWarning,0836.6,5.00,000.00,025.8,024.3,000.0,033.9,027.2,11.9,0000.0,0008.82,0004.93,0004.56
2024-01-28 23:52:00,SystemResetWarning,0836.6,5.00,000.00,025.8,024.5,000.0,033.9,027.3,11.9,0000.0,0008.84,0004.91,0004.51
2024-01-28 23:53:00,SystemResetWarning,0836.7,5.00,000.00,025.9,024.7,000.0,033.9,027.4,11.9,0000.0,0008.79,0004.86,0004.45
2024-01-28 23:54:00,SystemResetWarning,0836.7,5.00,000.00,025.9,024.9,000.0,034.0,027.4,11.9,0000.0,0008.62,0004.79,0004.40
2024-01-28 23:55:00,SystemResetWarning,0836.7,5.00,000.00,026.0,025.0,000.0,034.0,027.5,11.8,0000.0,0008.44,0004.70,0004.34
2024-01-28 23:56:00,SystemResetWarning,0836.7,5.00,000.00,026.0,025.1,000.0,034.0,027.6,11.8,0000.0,0008.40,0004.67,0004.30
2024-01-28 23:57:00,SystemResetWarning,0836.7,5.00,000.00,026.0,025.2,000.0,034.0,027.6,11.7,0000.0,0008.34,0004.64,0004.26
2024-01-28 23:58:00,SystemResetWarning,0836.7,5.00,000.00,026.1,025.3,000.0,034.1,027.7,11.7,0000.0,0008.28,0004.60,0004.22
2024-01-28 23:59:00,SystemResetWarning,0836.8,5.00,000.00,026.1,025.4,000.0,034.1,027.7,11.7,0000.0,0007.59,0004.59,0004.17
